Date,time,Flume,pH
unitless,UTC,unitless,pH total scale
2018-05-09 00:00,2018-05-09T10:00:00Z,1,7.633903
2018-05-09 00:30,2018-05-09T10:30:00Z,1,7.6310125
2018-05-09 01:00,2018-05-09T11:00:00Z,1,7.636582
2018-05-09 01:30,2018-05-09T11:30:00Z,1,7.635877
2018-05-09 02:00,2018-05-09T12:00:00Z,1,7.634044
2018-05-09 02:30,2018-05-09T12:30:00Z,1,7.631224
2018-05-09 03:00,2018-05-09T13:00:00Z,1,7.629814
2018-05-09 03:30,2018-05-09T13:30:00Z,1,7.628686
2018-05-09 04:00,2018-05-09T14:00:00Z,1,7.628122
2018-05-09 04:30,2018-05-09T14:30:00Z,1,7.63066
2018-05-09 05:00,2018-05-09T15:00:00Z,1,7.630096
2018-05-09 05:30,2018-05-09T15:30:00Z,1,7.632352
2018-05-09 06:00,2018-05-09T16:00:00Z,1,7.62502
2018-05-09 06:30,2018-05-09T16:30:00Z,1,7.642222
2018-05-09 07:00,2018-05-09T17:00:00Z,1,7.6766965
2018-05-09 07:30,2018-05-09T17:30:00Z,1,7.68565
2018-05-09 08:00,2018-05-09T18:00:00Z,1,7.68424
2018-05-09 08:30,2018-05-09T18:30:00Z,1,7.6785295
2018-05-09 09:00,2018-05-09T19:00:00Z,1,7.6843105
2018-05-09 09:30,2018-05-09T19:30:00Z,1,7.683958
2018-05-09 10:00,2018-05-09T20:00:00Z,1,7.6892455
2018-05-09 10:30,2018-05-09T20:30:00Z,1,7.6929115
2018-05-09 11:00,2018-05-09T21:00:00Z,1,7.6888225
2018-05-09 11:30,2018-05-09T21:30:00Z,1,7.685368
2018-05-09 12:00,2018-05-09T22:00:00Z,1,7.6860025
2018-05-09 12:30,2018-05-09T22:30:00Z,1,7.684381
2018-05-09 13:00,2018-05-09T23:00:00Z,1,7.6896685
2018-05-09 13:30,2018-05-09T23:30:00Z,1,7.68565
2018-05-09 14:00,2018-05-10T00:00:00Z,1,7.6889635
2018-05-09 14:30,2018-05-10T00:30:00Z,1,7.6868485
2018-05-09 16:00,2018-05-10T02:00:00Z,1,7.7026405
2018-05-09 16:30,2018-05-10T02:30:00Z,1,7.6964365
2018-05-09 17:00,2018-05-10T03:00:00Z,1,7.6971415
2018-05-09 17:30,2018-05-10T03:30:00Z,1,7.726822
2018-05-09 18:30,2018-05-10T04:30:00Z,1,7.7460685
2018-05-09 19:00,2018-05-10T05:00:00Z,1,7.674088
2018-05-09 19:30,2018-05-10T05:30:00Z,1,7.648003
2018-05-09 20:00,2018-05-10T06:00:00Z,1,7.641094
2018-05-09 20:30,2018-05-10T06:30:00Z,1,7.6413055
2018-05-09 21:00,2018-05-10T07:00:00Z,1,7.636582
2018-05-09 21:30,2018-05-10T07:30:00Z,1,7.6410235
2018-05-09 22:00,2018-05-10T08:00:00Z,1,7.6431385
2018-05-09 22:30,2018-05-10T08:30:00Z,1,7.6383445
2018-05-09 23:00,2018-05-10T09:00:00Z,1,7.637851
2018-05-09 23:30,2018-05-10T09:30:00Z,1,7.638415
2018-05-10 00:00,2018-05-10T10:00:00Z,1,7.632775
2018-05-10 00:30,2018-05-10T10:30:00Z,1,7.63066
2018-05-10 01:00,2018-05-10T11:00:00Z,1,7.6303075
2018-05-10 01:30,2018-05-10T11:30:00Z,1,7.6332685
2018-05-10 02:00,2018-05-10T12:00:00Z,1,7.6356655
2018-05-10 02:30,2018-05-10T12:30:00Z,1,7.6314355
2018-05-10 03:00,2018-05-10T13:00:00Z,1,7.627981
2018-05-10 03:30,2018-05-10T13:30:00Z,1,7.628122
2018-05-10 04:00,2018-05-10T14:00:00Z,1,7.633198
2018-05-10 04:30,2018-05-10T14:30:00Z,1,7.6288975
2018-05-10 05:00,2018-05-10T15:00:00Z,1,7.6345375
2018-05-10 05:30,2018-05-10T15:30:00Z,1,7.6301665
2018-05-10 06:00,2018-05-10T16:00:00Z,1,7.6311535
2018-05-10 06:30,2018-05-10T16:30:00Z,1,7.6396135
2018-05-10 07:00,2018-05-10T17:00:00Z,1,7.7842795
2018-05-10 07:30,2018-05-10T17:30:00Z,1,7.7209
2018-05-10 08:00,2018-05-10T18:00:00Z,1,7.6964365
2018-05-10 08:30,2018-05-10T18:30:00Z,1,7.6885405
2018-05-10 09:00,2018-05-10T19:00:00Z,1,7.692841
2018-05-10 10:00,2018-05-10T20:00:00Z,1,7.725694
2018-05-10 11:00,2018-05-10T21:00:00Z,1,7.8103645
2018-05-10 11:30,2018-05-10T21:30:00Z,1,7.7452225
2018-05-10 12:00,2018-05-10T22:00:00Z,1,7.6995385
2018-05-10 12:30,2018-05-10T22:30:00Z,1,7.667884
2018-05-10 13:00,2018-05-10T23:00:00Z,1,7.6824775
2018-05-10 13:30,2018-05-10T23:30:00Z,1,7.690444
2018-05-10 14:00,2018-05-11T00:00:00Z,1,7.688329
2018-05-10 14:30,2018-05-11T00:30:00Z,1,7.706377
2018-05-10 15:00,2018-05-11T01:00:00Z,1,7.720054
2018-05-10 15:30,2018-05-11T01:30:00Z,1,7.6737355
2018-05-10 16:00,2018-05-11T02:00:00Z,1,7.664641
2018-05-10 16:30,2018-05-11T02:30:00Z,1,7.6867075
2018-05-10 17:00,2018-05-11T03:00:00Z,1,7.7046145
2018-05-10 18:30,2018-05-11T04:30:00Z,1,7.714414
2018-05-10 19:00,2018-05-11T05:00:00Z,1,7.66309
2018-05-10 19:30,2018-05-11T05:30:00Z,1,7.653784
2018-05-10 20:00,2018-05-11T06:00:00Z,1,7.64476
2018-05-10 20:30,2018-05-11T06:30:00Z,1,7.6394725
2018-05-10 21:00,2018-05-11T07:00:00Z,1,7.645465
2018-05-10 21:30,2018-05-11T07:30:00Z,1,7.6448305
2018-05-10 22:00,2018-05-11T08:00:00Z,1,7.6452535
2018-05-10 22:30,2018-05-11T08:30:00Z,1,7.645465
2018-05-10 23:00,2018-05-11T09:00:00Z,1,7.6428565
2018-05-10 23:30,2018-05-11T09:30:00Z,1,7.644337
2018-05-11 00:00,2018-05-11T10:00:00Z,1,7.6451125
2018-05-11 00:30,2018-05-11T10:30:00Z,1,7.6449715
2018-05-11 01:00,2018-05-11T11:00:00Z,1,7.635313
2018-05-11 01:30,2018-05-11T11:30:00Z,1,7.6428565
2018-05-11 02:00,2018-05-11T12:00:00Z,1,7.637428
2018-05-11 02:30,2018-05-11T12:30:00Z,1,7.6403185
2018-05-11 03:00,2018-05-11T13:00:00Z,1,7.6352425
2018-05-11 03:30,2018-05-11T13:30:00Z,1,7.635172
2018-05-11 04:00,2018-05-11T14:00:00Z,1,7.642504
2018-05-11 04:30,2018-05-11T14:30:00Z,1,7.62925
2018-05-11 05:00,2018-05-11T15:00:00Z,1,7.6348195
2018-05-11 05:30,2018-05-11T15:30:00Z,1,7.635736
2018-05-11 06:00,2018-05-11T16:00:00Z,1,7.632493
2018-05-11 06:30,2018-05-11T16:30:00Z,1,7.639966
2018-05-11 07:30,2018-05-11T17:30:00Z,1,7.7056015
2018-05-11 08:00,2018-05-11T18:00:00Z,1,7.683676
2018-05-11 08:30,2018-05-11T18:30:00Z,1,7.6893865
2018-05-11 09:00,2018-05-11T19:00:00Z,1,7.688188
2018-05-11 09:30,2018-05-11T19:30:00Z,1,7.687624
2018-05-11 11:30,2018-05-11T21:30:00Z,1,7.762213
2018-05-11 12:00,2018-05-11T22:00:00Z,1,7.7208295
2018-05-11 12:30,2018-05-11T22:30:00Z,1,7.689457
2018-05-11 13:00,2018-05-11T23:00:00Z,1,7.6762735
2018-05-11 13:30,2018-05-11T23:30:00Z,1,7.6779655
2018-05-11 14:00,2018-05-12T00:00:00Z,1,7.680715
2018-05-11 14:30,2018-05-12T00:30:00Z,1,7.686496
2018-05-11 15:30,2018-05-12T01:30:00Z,1,7.752202
2018-05-11 16:00,2018-05-12T02:00:00Z,1,7.696648
2018-05-11 16:30,2018-05-12T02:30:00Z,1,7.693405
2018-05-11 17:00,2018-05-12T03:00:00Z,1,7.702006
2018-05-11 18:30,2018-05-12T04:30:00Z,1,7.777582
2018-05-11 19:00,2018-05-12T05:00:00Z,1,7.6845925
2018-05-11 19:30,2018-05-12T05:30:00Z,1,7.6503295
2018-05-11 20:00,2018-05-12T06:00:00Z,1,7.6499065
2018-05-11 20:30,2018-05-12T06:30:00Z,1,7.647721
2018-05-11 21:00,2018-05-12T07:00:00Z,1,7.6479325
2018-05-11 21:30,2018-05-12T07:30:00Z,1,7.649836
2018-05-11 22:00,2018-05-12T08:00:00Z,1,7.6501885
2018-05-11 22:30,2018-05-12T08:30:00Z,1,7.647439
2018-05-11 23:00,2018-05-12T09:00:00Z,1,7.6470865
2018-05-11 23:30,2018-05-12T09:30:00Z,1,7.645888
2018-05-09 00:00,2018-05-09T10:00:00Z,2,7.98792992
2018-05-09 00:30,2018-05-09T10:30:00Z,2,7.99200576
2018-05-09 01:00,2018-05-09T11:00:00Z,2,7.9930464
2018-05-09 01:30,2018-05-09T11:30:00Z,2,7.98888384
2018-05-09 02:00,2018-05-09T12:00:00Z,2,7.9800384
2018-05-09 02:30,2018-05-09T12:30:00Z,2,7.986976
2018-05-09 03:00,2018-05-09T13:00:00Z,2,7.99634176
2018-05-09 03:30,2018-05-09T13:30:00Z,2,8.0134256
2018-05-09 04:00,2018-05-09T14:00:00Z,2,8.03493216
2018-05-09 04:30,2018-05-09T14:30:00Z,2,8.04655264
2018-05-09 05:00,2018-05-09T15:00:00Z,2,8.06259584
2018-05-09 05:30,2018-05-09T15:30:00Z,2,8.07699136
2018-05-09 06:00,2018-05-09T16:00:00Z,2,8.07915936
2018-05-09 06:30,2018-05-09T16:30:00Z,2,8.09121344
2018-05-09 07:00,2018-05-09T17:00:00Z,2,8.09676352
2018-05-09 07:30,2018-05-09T17:30:00Z,2,8.1044816
2018-05-09 08:00,2018-05-09T18:00:00Z,2,8.110552
2018-05-09 08:30,2018-05-09T18:30:00Z,2,8.11861696
2018-05-09 09:00,2018-05-09T19:00:00Z,2,8.12598816
2018-05-09 09:30,2018-05-09T19:30:00Z,2,8.1304976
2018-05-09 10:00,2018-05-09T20:00:00Z,2,8.13335936
2018-05-09 10:30,2018-05-09T20:30:00Z,2,8.13812896
2018-05-09 11:00,2018-05-09T21:00:00Z,2,8.14038368
2018-05-09 11:30,2018-05-09T21:30:00Z,2,8.143072
2018-05-09 12:00,2018-05-09T22:00:00Z,2,8.14853536
2018-05-09 12:30,2018-05-09T22:30:00Z,2,8.14888224
2018-05-09 13:00,2018-05-09T23:00:00Z,2,8.14940256
2018-05-09 13:30,2018-05-09T23:30:00Z,2,8.1543456
2018-05-09 14:00,2018-05-10T00:00:00Z,2,8.15937536
2018-05-09 14:30,2018-05-10T00:30:00Z,2,8.164752
2018-05-09 15:00,2018-05-10T01:00:00Z,2,8.1742912
2018-05-09 15:30,2018-05-10T01:30:00Z,2,8.16284416
2018-05-09 16:00,2018-05-10T02:00:00Z,2,8.16874112
2018-05-09 16:30,2018-05-10T02:30:00Z,2,8.16405824
2018-05-09 17:00,2018-05-10T03:00:00Z,2,8.16223712
2018-05-09 17:30,2018-05-10T03:30:00Z,2,8.14732128
2018-05-09 18:00,2018-05-10T04:00:00Z,2,8.13561408
2018-05-09 18:30,2018-05-10T04:30:00Z,2,8.12798272
2018-05-09 19:00,2018-05-10T05:00:00Z,2,8.12624832
2018-05-09 19:30,2018-05-10T05:30:00Z,2,8.10309408
2018-05-09 20:00,2018-05-10T06:00:00Z,2,8.0849696
2018-05-09 20:30,2018-05-10T06:30:00Z,2,8.07144128
2018-05-09 21:00,2018-05-10T07:00:00Z,2,8.04603232
2018-05-09 21:30,2018-05-10T07:30:00Z,2,8.02573984
2018-05-09 22:00,2018-05-10T08:00:00Z,2,8.00371296
2018-05-09 22:30,2018-05-10T08:30:00Z,2,7.9713664
2018-05-09 23:00,2018-05-10T09:00:00Z,2,7.94907936
2018-05-09 23:30,2018-05-10T09:30:00Z,2,7.93052128
2018-05-10 00:00,2018-05-10T10:00:00Z,2,7.9202016
2018-05-10 00:30,2018-05-10T10:30:00Z,2,7.9063264
2018-05-10 01:00,2018-05-10T11:00:00Z,2,7.91595232
2018-05-10 01:30,2018-05-10T11:30:00Z,2,7.91924768
2018-05-10 02:00,2018-05-10T12:00:00Z,2,7.92011488
2018-05-10 02:30,2018-05-10T12:30:00Z,2,7.9210688
2018-05-10 03:00,2018-05-10T13:00:00Z,2,7.93511744
2018-05-10 03:30,2018-05-10T13:30:00Z,2,7.99070496
2018-05-10 04:00,2018-05-10T14:00:00Z,2,8.01516
2018-05-10 04:30,2018-05-10T14:30:00Z,2,8.03189696
2018-05-10 05:00,2018-05-10T15:00:00Z,2,8.04481824
2018-05-10 05:30,2018-05-10T15:30:00Z,2,8.05773952
2018-05-10 06:00,2018-05-10T16:00:00Z,2,8.07040064
2018-05-10 06:30,2018-05-10T16:30:00Z,2,8.078032
2018-05-10 07:00,2018-05-10T17:00:00Z,2,8.08635712
2018-05-10 07:30,2018-05-10T17:30:00Z,2,8.106216
2018-05-10 08:00,2018-05-10T18:00:00Z,2,8.10240032
2018-05-10 08:30,2018-05-10T18:30:00Z,2,8.10951136
2018-05-10 09:00,2018-05-10T19:00:00Z,2,8.11861696
2018-05-10 09:30,2018-05-10T19:30:00Z,2,8.12217248
2018-05-10 10:00,2018-05-10T20:00:00Z,2,8.12858976
2018-05-10 10:30,2018-05-10T20:30:00Z,2,8.13283904
2018-05-10 11:00,2018-05-10T21:00:00Z,2,8.13908288
2018-05-10 11:30,2018-05-10T21:30:00Z,2,8.14246496
2018-05-10 12:00,2018-05-10T22:00:00Z,2,8.14948928
2018-05-10 12:30,2018-05-10T22:30:00Z,2,8.1543456
2018-05-10 13:00,2018-05-10T23:00:00Z,2,8.15608
2018-05-10 13:30,2018-05-10T23:30:00Z,2,8.16136992
2018-05-10 14:00,2018-05-11T00:00:00Z,2,8.16839424
2018-05-10 14:30,2018-05-11T00:30:00Z,2,8.16796064
2018-05-10 15:00,2018-05-11T01:00:00Z,2,8.16761376
2018-05-10 15:30,2018-05-11T01:30:00Z,2,8.16718016
2018-05-10 16:00,2018-05-11T02:00:00Z,2,8.16796064
2018-05-10 16:30,2018-05-11T02:30:00Z,2,8.14541344
2018-05-10 17:00,2018-05-11T03:00:00Z,2,8.10023232
2018-05-10 17:30,2018-05-11T03:30:00Z,2,8.09632992
2018-05-10 18:00,2018-05-11T04:00:00Z,2,8.08392896
2018-05-10 18:30,2018-05-11T04:30:00Z,2,8.05730592
2018-05-10 19:00,2018-05-11T05:00:00Z,2,8.04924096
2018-05-10 19:30,2018-05-11T05:30:00Z,2,8.02747424
2018-05-10 20:00,2018-05-11T06:00:00Z,2,8.00709504
2018-05-10 20:30,2018-05-11T06:30:00Z,2,7.99486752
2018-05-10 21:00,2018-05-11T07:00:00Z,2,7.98975104
2018-05-10 21:30,2018-05-11T07:30:00Z,2,7.96971872
2018-05-10 22:00,2018-05-11T08:00:00Z,2,7.94170816
2018-05-10 22:30,2018-05-11T08:30:00Z,2,7.92037504
2018-05-10 23:00,2018-05-11T09:00:00Z,2,7.9189008
2018-05-10 23:30,2018-05-11T09:30:00Z,2,7.90641312
2018-05-11 00:00,2018-05-11T10:00:00Z,2,7.89297152
2018-05-11 00:30,2018-05-11T10:30:00Z,2,7.9097952
2018-05-11 01:00,2018-05-11T11:00:00Z,2,7.91959456
2018-05-11 01:30,2018-05-11T11:30:00Z,2,7.90944832
2018-05-11 02:00,2018-05-11T12:00:00Z,2,7.91265696
2018-05-11 02:30,2018-05-11T12:30:00Z,2,7.92228288
2018-05-11 03:00,2018-05-11T13:00:00Z,2,7.93676512
2018-05-11 03:30,2018-05-11T13:30:00Z,2,7.98645568
2018-05-11 04:00,2018-05-11T14:00:00Z,2,8.00700832
2018-05-11 04:30,2018-05-11T14:30:00Z,2,8.02244448
2018-05-11 05:00,2018-05-11T15:00:00Z,2,8.0381408
2018-05-11 05:30,2018-05-11T15:30:00Z,2,8.05262304
2018-05-11 06:00,2018-05-11T16:00:00Z,2,8.0641568
2018-05-11 06:30,2018-05-11T16:30:00Z,2,8.07785856
2018-05-11 07:00,2018-05-11T17:00:00Z,2,8.08852512
2018-05-11 07:30,2018-05-11T17:30:00Z,2,8.10023232
2018-05-11 08:00,2018-05-11T18:00:00Z,2,8.10951136
2018-05-11 08:30,2018-05-11T18:30:00Z,2,8.117056
2018-05-11 09:00,2018-05-11T19:00:00Z,2,8.12555456
2018-05-11 09:30,2018-05-11T19:30:00Z,2,8.13413984
2018-05-11 10:00,2018-05-11T20:00:00Z,2,8.13995008
2018-05-11 10:30,2018-05-11T20:30:00Z,2,8.1448064
2018-05-11 11:00,2018-05-11T21:00:00Z,2,8.151744
2018-05-11 11:30,2018-05-11T21:30:00Z,2,8.15443232
2018-05-11 12:00,2018-05-11T22:00:00Z,2,8.1573808
2018-05-11 12:30,2018-05-11T22:30:00Z,2,8.16284416
2018-05-11 13:00,2018-05-11T23:00:00Z,2,8.1643184
2018-05-11 13:30,2018-05-11T23:30:00Z,2,8.1677872
2018-05-11 14:00,2018-05-12T00:00:00Z,2,8.1708224
2018-05-11 14:30,2018-05-12T00:30:00Z,2,8.17177632
2018-05-11 15:00,2018-05-12T01:00:00Z,2,8.17541856
2018-05-11 15:30,2018-05-12T01:30:00Z,2,8.1781936
2018-05-11 16:00,2018-05-12T02:00:00Z,2,8.17749984
2018-05-11 16:30,2018-05-12T02:30:00Z,2,8.15703392
2018-05-11 17:00,2018-05-12T03:00:00Z,2,8.10179328
2018-05-11 17:30,2018-05-12T03:30:00Z,2,8.10109952
2018-05-11 18:00,2018-05-12T04:00:00Z,2,8.09077984
2018-05-11 18:30,2018-05-12T04:30:00Z,2,8.07144128
2018-05-11 19:00,2018-05-12T05:00:00Z,2,8.0481136
2018-05-11 19:30,2018-05-12T05:30:00Z,2,8.02270464
2018-05-11 20:00,2018-05-12T06:00:00Z,2,8.00787552
2018-05-11 20:30,2018-05-12T06:30:00Z,2,7.9778704
2018-05-11 21:00,2018-05-12T07:00:00Z,2,7.95211456
2018-05-11 21:30,2018-05-12T07:30:00Z,2,7.93208224
2018-05-11 22:00,2018-05-12T08:00:00Z,2,7.9119632
2018-05-11 22:30,2018-05-12T08:30:00Z,2,7.89791456
2018-05-11 23:00,2018-05-12T09:00:00Z,2,7.88846208
